Precipitable_Water
1.15 1.13 1.11 1.11 1.09 1.07 1.05 1.05 1.03 0.97 0.91 0.87 0.83 0.82 0.78 0.78 0.74 0.74 0.74 0.74 0.74 0.74 0.74 0.76 0.78 0.80 0.82 0.83 0.83 0.83 0.83 0.83 0.83 0.85 0.85 0.87 0.87 0.87 0.89 0.91 0.91 0.93 0.95 0.95 0.97 0.99 1.01 1.05 1.05 1.05 1.07 1.07 1.05 1.03 1.01 1.01 1.01 0.99 0.97 0.95 0.93 0.93 0.91 0.89 0.89 0.87 0.87 0.85 0.85
1.15 1.13 1.13 1.11 1.09 1.09 1.07 1.05 1.03 0.99 0.93 0.89 0.85 0.83 0.80 0.80 0.78 0.76 0.76 0.76 0.76 0.76 0.78 0.80 0.82 0.83 0.83 0.85 0.85 0.85 0.85 0.85 0.85 0.85 0.87 0.89 0.91 0.93 0.95 0.95 0.97 0.99 0.99 0.99 1.01 1.03 1.03 1.05 1.07 1.09 1.07 1.07 1.07 1.05 1.03 1.03 1.01 0.99 0.97 0.95 0.95 0.93 0.91 0.89 0.87 0.87 0.87 0.87 0.85
1.15 1.13 1.13 1.11 1.09 1.07 1.07 1.05 1.03 0.99 0.95 0.91 0.89 0.85 0.83 0.83 0.80 0.80 0.80 0.80 0.80 0.80 0.82 0.82 0.83 0.83 0.85 0.85 0.87 0.87 0.87 0.85 0.85 0.85 0.87 0.91 0.95 0.97 0.99 1.01 1.03 1.05 1.05 1.05 1.05 1.07 1.07 1.09 1.09 1.09 1.07 1.07 1.05 1.03 1.03 1.03 1.01 0.99 0.97 0.95 0.95 0.93 0.89 0.89 0.89 0.87 0.87 0.87 0.85
1.15 1.13 1.13 1.09 1.07 1.07 1.05 1.05 1.03 0.99 0.95 0.93 0.91 0.89 0.89 0.87 0.85 0.83 0.83 0.83 0.83 0.83 0.83 0.83 0.83 0.85 0.85 0.85 0.87 0.87 0.87 0.87 0.87 0.87 0.87 0.89 0.95 0.99 1.03 1.05 1.07 1.07 1.09 1.09 1.11 1.11 1.11 1.11 1.11 1.09 1.07 1.05 1.03 1.03 1.01 1.01 1.01 0.99 0.97 0.97 0.95 0.93 0.91 0.89 0.89 0.87 0.87 0.87 0.87
1.15 1.15 1.13 1.11 1.09 1.07 1.07 1.05 1.03 1.01 0.97 0.95 0.95 0.93 0.91 0.91 0.89 0.89 0.87 0.87 0.87 0.85 0.85 0.85 0.85 0.85 0.87 0.87 0.87 0.89 0.89 0.89 0.89 0.89 0.89 0.89 0.95 0.99 1.03 1.05 1.07 1.07 1.09 1.11 1.11 1.13 1.11 1.11 1.09 1.07 1.05 1.05 1.03 1.03 1.03 1.03 1.01 0.99 0.97 0.97 0.95 0.93 0.91 0.89 0.89 0.87 0.87 0.87 0.85
1.15 1.15 1.15 1.13 1.11 1.09 1.09 1.07 1.05 1.01 0.99 0.97 0.95 0.95 0.93 0.93 0.93 0.91 0.89 0.89 0.89 0.89 0.89 0.89 0.87 0.89 0.89 0.89 0.89 0.91 0.91 0.91 0.91 0.91 0.91 0.91 0.95 0.99 1.03 1.05 1.05 1.07 1.09 1.09 1.11 1.11 1.09 1.07 1.05 1.05 1.05 1.05 1.03 1.03 1.05 1.05 1.03 1.01 0.97 0.95 0.95 0.93 0.91 0.91 0.89 0.89 0.87 0.87 0.85
1.15 1.15 1.15 1.13 1.11 1.11 1.09 1.07 1.07 1.03 0.99 0.97 0.95 0.95 0.93 0.95 0.93 0.93 0.91 0.91 0.91 0.93 0.93 0.91 0.91 0.91 0.91 0.91 0.91 0.93 0.93 0.93 0.93 0.93 0.93 0.93 0.95 0.97 1.01 1.03 1.05 1.07 1.07 1.09 1.09 1.09 1.07 1.07 1.05 1.03 1.03 1.05 1.05 1.05 1.05 1.05 1.03 1.03 1.01 0.97 0.95 0.95 0.93 0.93 0.93 0.91 0.87 0.85 0.85
1.17 1.15 1.15 1.13 1.11 1.11 1.09 1.07 1.07 1.03 0.99 0.97 0.95 0.95 0.95 0.95 0.95 0.95 0.95 0.95 0.95 0.95 0.97 0.95 0.95 0.93 0.93 0.93 0.95 0.95 0.95 0.95 0.95 0.97 0.97 0.97 0.97 0.99 1.01 1.03 1.05 1.05 1.07 1.07 1.09 1.07 1.05 1.05 1.05 1.03 1.03 1.03 1.05 1.05 1.07 1.07 1.05 1.03 1.01 0.97 0.97 0.97 0.95 0.95 0.95 0.93 0.91 0.87 0.87
1.17 1.17 1.15 1.13 1.13 1.11 1.09 1.09 1.07 1.03 0.99 0.97 0.95 0.95 0.95 0.97 0.95 0.97 0.97 0.97 0.97 0.99 0.97 0.97 0.97 0.97 0.97 0.97 0.97 0.97 0.99 0.99 0.97 0.99 0.99 0.99 0.99 0.99 1.01 1.03 1.05 1.05 1.05 1.07 1.07 1.05 1.05 1.05 1.03 1.03 1.03 1.05 1.05 1.05 1.07 1.07 1.05 1.03 1.03 1.01 0.97 0.97 0.95 0.95 0.95 0.93 0.93 0.91 0.87
1.17 1.17 1.15 1.13 1.13 1.13 1.11 1.09 1.07 1.03 0.99 0.97 0.97 0.97 0.97 0.97 0.97 0.99 0.99 0.99 1.01 0.99 0.99 0.97 0.99 0.99 0.99 0.99 0.99 0.99 1.01 1.01 0.99 0.99 1.01 1.01 1.01 1.01 1.01 1.03 1.03 1.05 1.05 1.07 1.07 1.05 1.05 1.03 1.03 1.03 1.03 1.05 1.05 1.05 1.07 1.07 1.05 1.03 1.03 1.01 0.99 0.97 0.95 0.95 0.93 0.93 0.91 0.89 0.87
1.17 1.17 1.15 1.15 1.13 1.13 1.11 1.09 1.07 1.03 1.01 0.99 0.99 0.99 0.99 0.99 0.99 0.99 1.01 1.01 1.01 0.99 0.99 0.99 0.99 1.01 1.01 1.01 1.01 1.01 1.03 1.03 1.01 1.01 1.01 1.01 1.01 1.01 1.03 1.03 1.05 1.05 1.05 1.05 1.07 1.07 1.05 1.03 1.01 1.03 1.03 1.05 1.05 1.05 1.05 1.07 1.05 1.03 1.03 1.01 0.99 0.97 0.93 0.93 0.91 0.91 0.89 0.85 0.85
1.17 1.17 1.17 1.17 1.15 1.13 1.11 1.09 1.07 1.03 1.01 0.99 0.99 0.99 0.99 0.99 0.99 1.01 1.01 1.01 1.01 0.99 1.01 1.01 1.01 1.03 1.03 1.03 1.03 1.03 1.03 1.03 1.03 1.03 1.03 1.03 1.03 1.03 1.03 1.05 1.05 1.05 1.05 1.07 1.07 1.07 1.05 1.01 1.01 1.01 1.03 1.03 1.05 1.05 1.05 1.07 1.05 1.03 1.01 1.01 0.99 0.97 0.95 0.91 0.89 0.89 0.87 0.85 0.83
1.17 1.17 1.17 1.17 1.15 1.15 1.11 1.09 1.07 1.03 1.01 0.99 0.99 0.99 0.99 0.99 1.01 1.01 1.01 1.01 1.01 1.01 1.01 1.03 1.03 1.03 1.03 1.05 1.05 1.05 1.05 1.05 1.03 1.03 1.03 1.03 1.03 1.03 1.05 1.05 1.05 1.05 1.05 1.07 1.07 1.05 1.05 1.03 1.01 1.01 1.01 1.03 1.05 1.05 1.07 1.05 1.03 1.01 0.99 0.99 0.97 0.95 0.93 0.91 0.89 0.87 0.85 0.85 0.83
1.19 1.17 1.17 1.17 1.15 1.15 1.13 1.09 1.07 1.03 1.01 0.99 0.99 0.99 0.99 1.01 1.01 1.01 1.01 1.01 1.01 1.01 1.03 1.03 1.03 1.05 1.05 1.05 1.05 1.05 1.05 1.05 1.05 1.03 1.03 1.03 1.03 1.05 1.05 1.05 1.05 1.05 1.05 1.07 1.07 1.05 1.03 1.03 1.03 1.01 1.01 1.03 1.05 1.05 1.05 1.05 1.05 1.01 0.99 0.97 0.97 0.95 0.93 0.91 0.91 0.89 0.87 0.85 0.85
1.17 1.17 1.17 1.17 1.15 1.15 1.13 1.11 1.09 1.05 1.01 0.99 0.99 0.99 1.01 1.01 1.01 1.01 1.01 1.01 1.01 1.03 1.03 1.03 1.03 1.05 1.07 1.07 1.07 1.07 1.05 1.05 1.05 1.03 1.03 1.03 1.03 1.05 1.05 1.05 1.05 1.05 1.05 1.05 1.05 1.05 1.03 1.03 1.03 1.03 1.03 1.03 1.03 1.05 1.05 1.05 1.03 1.01 0.99 0.97 0.97 0.95 0.93 0.93 0.91 0.91 0.89 0.87 0.85
1.17 1.17 1.17 1.17 1.15 1.15 1.13 1.11 1.09 1.05 1.01 1.01 1.01 1.01 1.01 1.01 1.01 1.01 1.01 1.01 1.03 1.03 1.03 1.03 1.01 1.03 1.07 1.07 1.07 1.07 1.05 1.05 1.05 1.03 1.03 1.03 1.03 1.03 1.05 1.05 1.05 1.05 1.05 1.05 1.03 1.03 1.05 1.05 1.05 1.05 1.05 1.05 1.05 1.05 1.05 1.05 1.03 1.01 1.01 0.99 0.97 0.95 0.95 0.93 0.93 0.93 0.91 0.91 0.89
1.17 1.17 1.17 1.17 1.15 1.15 1.13 1.13 1.11 1.07 1.03 1.01 1.01 1.01 1.01 1.01 1.01 1.01 1.01 1.01 1.01 1.03 1.03 1.01 1.01 1.03 1.03 1.05 1.07 1.07 1.05 1.05 1.03 1.03 1.03 1.01 1.03 1.03 1.03 1.03 1.05 1.05 1.05 1.03 1.03 1.03 1.03 1.05 1.05 1.07 1.07 1.07 1.05 1.05 1.05 1.05 1.03 1.01 1.01 0.99 0.97 0.97 0.95 0.95 0.95 0.93 0.93 0.93 0.91
1.15 1.17 1.17 1.17 1.15 1.15 1.15 1.13 1.11 1.09 1.05 1.03 1.03 1.01 1.01 1.01 1.01 1.01 1.01 1.01 1.01 1.01 1.01 1.01 1.01 1.01 1.03 1.03 1.05 1.05 1.05 1.03 1.03 1.03 1.03 1.03 1.03 1.03 1.03 1.03 1.05 1.05 1.05 1.03 1.03 1.03 1.03 1.05 1.07 1.07 1.07 1.07 1.07 1.07 1.05 1.05 1.03 1.01 1.01 0.99 0.99 0.97 0.97 0.95 0.95 0.95 0.93 0.93 0.93
1.15 1.15 1.15 1.17 1.17 1.17 1.15 1.15 1.13 1.09 1.07 1.05 1.03 1.03 1.03 1.03 1.03 1.01 1.01 1.01 1.03 1.03 1.01 1.01 1.01 1.01 1.01 1.03 1.03 1.05 1.05 1.03 1.03 1.03 1.03 1.03 1.03 1.03 1.03 1.05 1.05 1.05 1.05 1.05 1.03 1.05 1.05 1.05 1.07 1.07 1.09 1.09 1.07 1.07 1.05 1.05 1.03 1.03 1.01 1.01 0.99 0.99 0.99 0.97 0.95 0.95 0.95 0.95 0.95
1.17 1.15 1.15 1.17 1.17 1.19 1.17 1.17 1.15 1.11 1.09 1.07 1.05 1.05 1.03 1.03 1.03 1.03 1.01 1.01 1.03 1.03 1.03 1.01 1.01 0.99 1.01 1.03 1.03 1.03 1.05 1.05 1.03 1.03 1.03 1.03 1.03 1.03 1.05 1.05 1.05 1.05 1.05 1.05 1.05 1.05 1.05 1.07 1.07 1.09 1.09 1.07 1.07 1.05 1.05 1.03 1.03 1.03 1.01 1.01 1.01 0.99 0.99 0.99 0.97 0.97 0.97 0.97 0.95
1.19 1.17 1.15 1.17 1.17 1.19 1.19 1.19 1.17 1.15 1.11 1.09 1.07 1.05 1.05 1.03 1.03 1.03 1.03 1.03 1.03 1.03 1.03 1.03 1.01 1.01 0.99 1.01 1.01 1.03 1.03 1.05 1.05 1.03 1.03 1.05 1.05 1.05 1.05 1.05 1.05 1.03 1.03 1.03 1.03 1.05 1.05 1.07 1.07 1.07 1.07 1.07 1.07 1.05 1.05 1.03 1.03 1.01 1.01 1.01 0.99 0.99 0.99 0.99 0.99 0.99 0.97 0.97 0.97
1.21 1.19 1.19 1.17 1.17 1.19 1.19 1.19 1.19 1.17 1.13 1.09 1.07 1.07 1.05 1.05 1.05 1.05 1.05 1.03 1.05 1.05 1.03 1.03 1.01 1.01 1.01 1.01 1.01 1.03 1.03 1.05 1.05 1.05 1.05 1.05 1.05 1.05 1.05 1.05 1.03 1.03 1.03 1.03 1.03 1.05 1.05 1.07 1.07 1.07 1.07 1.07 1.05 1.05 1.05 1.05 1.03 1.01 0.99 0.99 0.99 0.99 0.99 0.99 0.99 0.99 0.99 0.99 0.97
1.23 1.23 1.21 1.19 1.19 1.19 1.19 1.19 1.19 1.17 1.15 1.11 1.09 1.07 1.05 1.05 1.05 1.05 1.05 1.05 1.05 1.05 1.03 1.03 1.03 1.03 1.01 1.01 1.01 1.03 1.03 1.05 1.03 1.05 1.05 1.05 1.05 1.05 1.05 1.05 1.03 1.01 1.01 1.01 1.03 1.05 1.05 1.05 1.07 1.07 1.07 1.07 1.05 1.05 1.05 1.05 1.05 1.03 1.01 0.99 0.99 0.97 0.97 0.97 0.97 0.99 0.99 1.01 0.99
1.21 1.21 1.23 1.21 1.19 1.19 1.19 1.19 1.19 1.17 1.15 1.13 1.09 1.09 1.07 1.05 1.05 1.05 1.05 1.05 1.05 1.05 1.05 1.05 1.05 1.03 1.03 1.03 1.03 1.03 1.03 1.03 1.03 1.03 1.03 1.05 1.05 1.05 1.03 1.03 1.01 1.01 1.01 1.03 1.05 1.05 1.05 1.05 1.07 1.07 1.07 1.07 1.07 1.07 1.05 1.05 1.05 1.03 1.01 0.99 0.99 0.97 0.95 0.95 0.97 0.97 0.99 1.01 1.01
1.17 1.19 1.21 1.21 1.19 1.19 1.17 1.17 1.17 1.17 1.15 1.13 1.11 1.09 1.07 1.07 1.07 1.07 1.05 1.05 1.05 1.05 1.05 1.05 1.05 1.05 1.05 1.05 1.05 1.05 1.03 1.03 1.03 1.03 1.03 1.03 1.03 1.03 1.03 1.01 1.01 1.01 1.03 1.03 1.05 1.07 1.07 1.07 1.07 1.09 1.09 1.07 1.07 1.07 1.05 1.05 1.05 1.03 1.03 1.01 0.99 0.97 0.95 0.93 0.95 0.95 0.97 0.99 0.99
1.15 1.17 1.17 1.19 1.19 1.19 1.17 1.17 1.17 1.17 1.15 1.13 1.13 1.11 1.09 1.07 1.07 1.07 1.07 1.05 1.05 1.07 1.07 1.07 1.05 1.05 1.05 1.05 1.05 1.05 1.05 1.05 1.05 1.03 1.01 1.01 1.01 1.01 1.01 1.01 1.01 1.03 1.03 1.05 1.07 1.07 1.09 1.09 1.11 1.11 1.11 1.09 1.07 1.05 1.05 1.05 1.05 1.05 1.03 1.03 1.01 0.99 0.95 0.91 0.93 0.95 0.97 0.99 0.99
1.11 1.13 1.15 1.17 1.19 1.19 1.17 1.17 1.17 1.17 1.15 1.15 1.13 1.11 1.09 1.07 1.07 1.07 1.07 1.05 1.05 1.07 1.07 1.07 1.05 1.05 1.05 1.05 1.05 1.05 1.05 1.05 1.05 1.03 1.03 1.01 1.01 1.01 1.01 1.01 1.01 1.03 1.05 1.05 1.07 1.09 1.11 1.11 1.13 1.13 1.13 1.11 1.07 1.05 1.05 1.03 1.05 1.05 1.05 1.03 1.01 0.99 0.95 0.93 0.93 0.95 0.97 0.97 0.99
1.11 1.11 1.13 1.15 1.17 1.19 1.19 1.19 1.17 1.17 1.15 1.15 1.13 1.11 1.09 1.09 1.07 1.07 1.05 1.05 1.07 1.07 1.07 1.07 1.07 1.07 1.07 1.05 1.05 1.05 1.05 1.05 1.05 1.05 1.03 1.03 1.03 1.01 1.01 1.01 1.01 1.03 1.05 1.09 1.09 1.11 1.11 1.13 1.13 1.13 1.13 1.11 1.09 1.07 1.05 1.05 1.05 1.05 1.03 1.03 0.99 0.97 0.95 0.95 0.95 0.95 0.97 0.97 0.95
1.11 1.11 1.11 1.13 1.15 1.17 1.19 1.19 1.19 1.17 1.15 1.15 1.13 1.11 1.09 1.09 1.07 1.05 1.05 1.05 1.05 1.05 1.07 1.07 1.07 1.05 1.05 1.05 1.05 1.05 1.05 1.05 1.05 1.05 1.05 1.03 1.03 1.03 1.03 1.03 1.03 1.03 1.07 1.09 1.11 1.11 1.13 1.13 1.13 1.13 1.13 1.13 1.11 1.09 1.07 1.05 1.05 1.05 1.03 1.01 0.99 0.97 0.97 0.97 0.97 0.97 0.97 0.97 0.93
1.13 1.11 1.11 1.11 1.13 1.15 1.17 1.19 1.19 1.17 1.17 1.15 1.13 1.11 1.09 1.09 1.07 1.05 1.05 1.05 1.03 1.05 1.05 1.05 1.05 1.05 1.05 1.05 1.05 1.05 1.05 1.05 1.07 1.05 1.05 1.03 1.03 1.03 1.03 1.05 1.05 1.07 1.09 1.11 1.11 1.13 1.13 1.13 1.13 1.13 1.13 1.11 1.09 1.07 1.07 1.07 1.05 1.03 1.01 0.99 0.97 0.97 0.97 0.97 0.99 0.97 0.97 0.95 0.93
1.13 1.11 1.11 1.11 1.11 1.13 1.15 1.17 1.17 1.17 1.17 1.15 1.13 1.11 1.09 1.07 1.07 1.05 1.05 1.05 1.05 1.05 1.05 1.05 1.05 1.05 1.05 1.05 1.05 1.05 1.05 1.05 1.05 1.05 1.05 1.03 1.03 1.03 1.05 1.07 1.07 1.09 1.11 1.11 1.13 1.13 1.13 1.13 1.13 1.13 1.11 1.11 1.09 1.07 1.07 1.07 1.07 1.05 1.01 0.99 0.99 0.97 0.99 0.99 0.99 0.97 0.95 0.93 0.93
1.11 1.11 1.11 1.13 1.13 1.15 1.15 1.15 1.17 1.17 1.17 1.15 1.13 1.11 1.09 1.07 1.07 1.07 1.09 1.09 1.07 1.05 1.05 1.03 1.03 1.03 1.03 1.05 1.03 1.03 1.03 1.03 1.03 1.05 1.05 1.03 1.05 1.05 1.07 1.07 1.09 1.11 1.11 1.13 1.13 1.13 1.13 1.13 1.13 1.11 1.11 1.09 1.07 1.07 1.07 1.07 1.07 1.05 1.03 1.01 0.99 0.99 0.99 0.99 0.97 0.95 0.93 0.93 0.93
1.11 1.11 1.11 1.13 1.15 1.15 1.17 1.17 1.19 1.19 1.17 1.15 1.13 1.11 1.09 1.09 1.09 1.09 1.11 1.11 1.11 1.07 1.05 1.03 1.03 1.01 1.01 1.03 1.03 1.03 1.03 1.03 1.03 1.03 1.05 1.05 1.05 1.07 1.07 1.09 1.09 1.11 1.11 1.13 1.13 1.13 1.13 1.13 1.11 1.11 1.09 1.09 1.07 1.07 1.07 1.07 1.05 1.03 1.01 1.01 1.01 1.01 0.99 0.99 0.97 0.95 0.93 0.93 0.93
1.11 1.11 1.11 1.13 1.15 1.17 1.19 1.19 1.19 1.19 1.19 1.17 1.15 1.15 1.13 1.11 1.09 1.11 1.11 1.13 1.13 1.11 1.09 1.07 1.05 1.03 1.03 1.03 1.03 1.03 1.03 1.03 1.03 1.03 1.03 1.05 1.07 1.07 1.07 1.09 1.09 1.11 1.11 1.13 1.13 1.13 1.13 1.13 1.11 1.09 1.09 1.07 1.07 1.07 1.07 1.05 1.05 1.03 1.01 1.01 1.01 1.01 1.01 0.99 0.97 0.95 0.93 0.93 0.91
1.09 1.11 1.11 1.13 1.15 1.17 1.19 1.19 1.21 1.21 1.21 1.19 1.19 1.17 1.15 1.13 1.11 1.13 1.13 1.15 1.15 1.15 1.11 1.11 1.09 1.07 1.05 1.05 1.05 1.03 1.03 1.01 1.03 1.03 1.03 1.05 1.05 1.07 1.07 1.07 1.09 1.11 1.11 1.11 1.13 1.13 1.13 1.11 1.11 1.09 1.09 1.07 1.07 1.05 1.05 1.03 1.03 1.01 1.01 1.01 0.99 0.99 0.99 0.99 0.97 0.95 0.93 0.91 0.87
1.09 1.09 1.11 1.13 1.15 1.17 1.19 1.19 1.21 1.21 1.21 1.21 1.21 1.19 1.17 1.15 1.15 1.15 1.17 1.17 1.17 1.17 1.13 1.13 1.11 1.09 1.07 1.05 1.05 1.03 1.03 1.01 1.01 1.03 1.03 1.05 1.05 1.05 1.05 1.07 1.07 1.09 1.11 1.11 1.11 1.11 1.11 1.11 1.11 1.09 1.09 1.07 1.07 1.05 1.03 1.03 1.01 1.01 1.01 0.99 0.99 0.99 0.99 0.97 0.97 0.95 0.93 0.87 0.83
1.07 1.09 1.09 1.11 1.11 1.13 1.17 1.21 1.21 1.21 1.21 1.23 1.23 1.23 1.21 1.19 1.17 1.17 1.19 1.19 1.19 1.17 1.15 1.13 1.11 1.09 1.07 1.05 1.05 1.03 1.03 1.03 1.03 1.03 1.03 1.05 1.05 1.05 1.05 1.05 1.07 1.09 1.09 1.11 1.11 1.11 1.11 1.11 1.11 1.09 1.09 1.07 1.07 1.05 1.03 1.01 1.01 1.01 0.99 0.99 0.99 0.99 0.97 0.97 0.95 0.93 0.91 0.87 0.83
1.05 1.07 1.07 1.07 1.07 1.09 1.11 1.19 1.21 1.23 1.23 1.25 1.25 1.25 1.23 1.23 1.21 1.19 1.21 1.21 1.19 1.17 1.17 1.15 1.13 1.11 1.09 1.07 1.05 1.05 1.05 1.05 1.05 1.03 1.03 1.05 1.05 1.05 1.05 1.05 1.07 1.07 1.09 1.11 1.11 1.11 1.11 1.11 1.09 1.09 1.09 1.07 1.05 1.05 1.03 1.03 1.01 0.99 0.99 0.99 0.99 0.97 0.97 0.95 0.93 0.91 0.89 0.83 0.80
1.05 1.05 1.05 1.05 1.03 1.03 1.07 1.15 1.19 1.23 1.25 1.27 1.27 1.27 1.25 1.25 1.23 1.23 1.23 1.23 1.23 1.21 1.19 1.17 1.15 1.13 1.13 1.11 1.09 1.07 1.05 1.05 1.05 1.05 1.05 1.05 1.07 1.07 1.07 1.07 1.07 1.07 1.09 1.09 1.11 1.11 1.11 1.11 1.09 1.09 1.09 1.09 1.07 1.05 1.05 1.05 1.01 0.99 0.99 0.97 0.97 0.97 0.95 0.95 0.93 0.89 0.85 0.80 0.78
1.03 1.03 1.03 1.03 1.01 1.01 1.03 1.11 1.15 1.21 1.25 1.27 1.27 1.27 1.27 1.25 1.25 1.25 1.25 1.27 1.25 1.23 1.21 1.19 1.17 1.17 1.15 1.13 1.09 1.07 1.07 1.07 1.07 1.07 1.07 1.07 1.07 1.07 1.09 1.09 1.07 1.09 1.09 1.11 1.11 1.11 1.11 1.11 1.11 1.11 1.11 1.11 1.09 1.07 1.07 1.05 1.03 1.01 0.99 0.97 0.97 0.95 0.95 0.93 0.91 0.85 0.80 0.78 0.76
1.03 1.03 1.01 1.01 1.01 1.01 1.01 1.07 1.13 1.17 1.21 1.25 1.27 1.27 1.29 1.29 1.29 1.29 1.29 1.27 1.27 1.25 1.23 1.23 1.19 1.19 1.17 1.15 1.13 1.09 1.07 1.07 1.07 1.07 1.07 1.07 1.07 1.09 1.09 1.09 1.09 1.09 1.09 1.11 1.13 1.13 1.13 1.13 1.13 1.13 1.13 1.11 1.11 1.09 1.07 1.05 1.01 0.99 0.97 0.97 0.97 0.95 0.93 0.91 0.87 0.82 0.78 0.74 0.74
Wind_Speed
27 26 26 26 25 25 24 24 24 24 23 23 22 22 22 22 21 21 21 21 20 20 20 21 21 21 21 21 21 20 20 20 19 19 19 19 20 20 20 20 19 19 18 17 17 17 16 16 15 15 15 14 14 14 14 14 15 15 16 17 17 18 18 18 19 19 19 19 19
26 26 26 26 25 24 24 23 23 23 23 23 22 22 22 21 21 21 21 21 20 20 20 20 20 20 20 20 20 20 20 20 19 19 19 19 20 20 20 20 20 19 18 17 17 17 16 16 15 15 15 14 14 14 14 14 15 16 16 17 17 18 18 18 18 18 18 19 19
26 26 26 26 25 24 24 23 23 23 23 23 22 22 22 21 21 21 21 21 20 20 20 20 20 20 20 20 20 20 20 19 19 19 19 19 19 19 20 20 19 19 18 18 17 17 16 15 15 15 14 14 14 14 15 15 15 16 17 17 17 17 18 18 18 18 18 19 19
26 26 26 25 25 25 24 23 23 23 23 23 23 22 22 22 21 21 21 20 20 20 20 20 20 20 20 19 19 19 19 19 19 19 19 19 19 19 18 18 18 18 18 17 17 16 15 15 15 14 14 14 15 15 15 16 16 16 17 17 17 17 18 18 18 18 19 19 19
26 26 26 25 25 25 25 24 23 23 23 23 23 22 22 22 22 21 21 21 20 20 20 20 20 20 20 20 20 19 19 19 19 19 19 19 19 18 18 17 17 17 17 16 16 15 15 14 14 15 15 15 16 16 16 16 16 17 17 17 17 18 18 18 18 18 19 19 19
26 26 26 26 25 25 25 24 24 24 23 23 23 23 23 22 22 22 21 21 21 20 20 20 20 20 20 20 20 20 19 19 19 19 19 19 19 18 18 17 17 16 16 16 15 15 14 15 15 15 16 16 16 17 17 17 17 17 17 17 18 18 18 19 19 18 18 18 19
27 26 26 26 26 25 25 25 24 24 24 24 24 24 23 23 23 22 22 22 21 20 20 20 20 20 20 20 20 20 19 19 19 19 19 19 19 19 18 18 17 17 16 15 15 15 15 15 16 16 16 16 16 16 17 17 17 17 17 18 18 19 19 19 19 19 18 18 18
27 27 26 26 26 25 25 25 25 25 25 24 24 24 24 24 23 23 23 22 21 21 21 20 20 20 20 20 20 20 19 19 19 19 19 19 19 19 19 18 18 17 16 16 15 15 15 15 16 16 16 16 16 16 16 17 17 17 17 18 18 19 19 19 19 19 19 18 18
27 27 26 26 26 25 25 25 25 25 25 25 25 25 25 24 24 24 23 22 22 21 21 21 20 20 20 20 20 20 19 19 19 19 19 19 19 19 19 18 18 17 17 16 16 15 15 15 16 16 16 16 16 16 16 16 17 17 17 18 18 19 19 19 19 19 19 18 18
27 27 26 26 26 25 25 25 25 25 25 25 25 25 25 25 24 24 23 23 22 22 22 21 21 21 20 20 20 20 19 19 19 19 19 19 19 19 19 18 18 18 17 16 16 16 15 15 15 15 15 15 15 15 16 16 16 17 17 18 18 18 18 18 18 18 18 18 18
27 27 26 26 26 26 25 25 25 25 25 26 26 26 26 25 25 24 24 23 23 22 22 22 21 21 21 20 20 20 20 19 19 19 19 19 19 19 19 18 18 17 17 16 16 16 15 15 15 15 15 15 15 15 15 16 16 17 17 17 18 18 18 18 18 18 18 19 19
27 27 26 26 26 26 26 25 25 25 26 26 26 26 26 26 25 25 24 23 23 23 23 22 22 22 21 21 20 20 20 20 20 19 19 19 19 19 19 18 18 17 17 16 16 16 15 15 15 15 15 15 15 15 16 16 16 17 17 17 17 17 17 18 18 18 18 19 19
27 27 26 26 26 26 26 26 26 26 26 26 26 26 26 26 26 25 25 24 24 23 23 22 22 22 21 21 21 20 20 20 20 20 19 19 19 19 18 18 18 17 17 16 16 16 16 16 16 15 15 15 15 16 16 16 16 17 17 17 17 17 17 18 18 18 18 18 18
27 27 27 26 26 26 26 26 26 26 26 26 26 26 26 26 26 26 25 24 24 24 23 23 23 22 22 22 21 21 21 20 20 20 20 19 19 19 19 18 18 17 17 17 16 16 16 16 16 16 16 15 16 16 16 17 17 17 17 17 17 17 17 18 18 18 18 18 17
27 27 27 26 26 26 26 26 26 26 26 26 27 27 27 27 27 26 26 25 24 24 24 23 23 23 22 22 22 21 21 21 21 20 20 20 19 19 19 18 18 18 17 17 17 17 17 16 16 16 16 16 16 16 17 17 17 17 17 17 17 17 17 17 17 17 17 17 16
27 27 27 27 27 26 26 26 26 26 26 27 27 27 27 27 27 27 26 26 25 25 24 24 23 23 23 23 22 22 21 21 21 21 20 20 20 19 19 18 18 18 18 17 17 17 17 17 17 16 16 16 16 16 17 17 17 17 17 17 17 17 17 17 17 17 16 16 16
27 27 27 27 27 27 26 26 26 26 26 27 27 27 27 27 27 27 27 26 26 25 25 24 24 24 23 23 23 22 22 21 21 21 20 20 20 19 19 19 18 18 18 18 17 17 17 17 17 17 17 16 17 16 16 16 17 17 17 17 17 17 17 17 16 16 16 16 16
26 26 27 27 27 27 27 26 26 26 26 27 27 27 28 28 28 28 27 27 26 26 25 25 24 24 24 23 23 22 22 21 21 21 20 20 20 19 19 19 18 18 18 18 18 17 17 17 17 17 17 17 17 16 16 16 16 17 17 17 17 16 16 16 16 16 16 16 16
25 26 26 27 27 27 27 26 26 26 26 27 27 28 28 28 28 28 28 27 27 26 26 25 25 24 24 24 23 23 22 22 21 21 21 20 20 20 19 19 19 18 18 18 18 18 17 17 17 17 17 17 16 16 16 16 16 16 16 16 16 16 16 15 15 16 16 16 16
25 25 26 27 27 27 27 27 26 26 26 27 27 28 28 28 28 28 28 28 28 27 26 26 25 25 24 24 23 23 22 22 22 21 21 21 20 20 20 19 19 19 18 18 18 18 18 17 17 17 17 16 16 16 16 16 16 16 16 16 16 16 15 15 15 15 16 16 16
24 25 25 26 26 27 27 27 27 26 26 27 27 28 28 28 28 29 29 28 28 28 27 26 26 25 25 24 24 23 23 22 22 22 21 21 21 20 20 20 19 19 19 19 19 18 18 18 17 17 17 17 16 16 16 16 16 16 16 16 16 16 15 15 15 15 15 15 15
24 24 25 25 26 26 27 27 27 27 27 27 27 28 28 29 29 29 29 29 28 28 27 27 27 26 26 25 25 24 23 23 22 22 22 21 21 21 21 20 20 20 20 19 19 19 18 18 17 17 17 17 16 16 16 16 16 15 15 15 15 15 15 15 14 14 14 15 15
24 24 24 25 25 26 26 27 27 27 27 27 27 28 28 29 29 29 29 29 29 28 28 28 27 27 27 26 25 25 24 23 23 22 22 22 21 21 21 21 21 21 20 20 19 19 18 18 17 17 17 17 16 16 16 15 15 15 15 15 15 15 15 14 14 13 13 13 13
23 23 24 24 25 26 26 27 27 27 27 27 27 28 29 29 29 29 29 29 29 29 29 28 28 28 27 27 26 26 25 24 24 23 22 22 22 22 22 22 22 21 21 21 20 19 19 18 18 17 17 17 16 16 16 15 15 15 15 15 15 15 15 14 14 13 12 12 12
22 23 23 24 25 26 26 26 27 27 27 27 28 28 29 29 29 30 30 30 30 30 29 29 29 29 28 28 27 27 26 25 24 24 23 22 22 22 22 22 22 22 22 21 20 20 19 19 18 18 17 17 17 16 15 15 15 14 14 14 15 15 15 14 14 13 12 11 11
22 23 23 24 25 26 26 26 27 27 27 27 28 28 29 29 29 30 30 30 30 30 30 29 29 29 29 29 28 27 27 26 25 24 24 23 23 23 23 23 23 22 22 21 20 20 19 19 19 18 18 18 17 16 15 14 14 13 13 14 15 15 15 14 14 13 13 12 12
22 23 24 24 25 25 26 26 27 27 27 28 28 28 28 29 29 30 30 30 31 30 30 30 30 30 30 29 29 28 27 26 25 25 25 24 24 23 23 23 23 23 22 21 21 20 19 19 19 18 18 18 17 16 15 14 13 12 13 14 15 16 15 14 14 13 13 13 12
23 23 24 24 25 26 26 26 27 27 27 28 28 28 28 29 29 29 30 31 31 31 30 30 30 30 30 30 29 28 27 27 26 26 25 25 24 24 24 24 23 23 22 21 21 20 19 19 19 18 18 18 17 16 15 14 12 12 14 16 17 17 16 14 14 13 13 12 12
24 24 24 25 25 26 26 26 27 27 27 27 28 28 28 28 29 29 30 30 31 31 31 31 31 31 31 30 29 28 28 27 27 26 25 25 24 24 24 24 23 23 22 21 21 20 20 19 19 18 18 18 17 16 15 13 13 14 16 17 18 17 16 15 14 13 12 12 11
25 25 25 25 25 26 26 27 27 27 27 27 27 28 28 28 28 29 29 30 31 31 31 31 31 31 31 30 30 29 28 28 27 26 26 25 25 24 24 24 23 23 22 21 21 20 20 19 19 18 18 18 17 16 14 13 14 16 18 19 18 17 15 14 14 13 12 11 10
26 26 25 26 26 26 27 27 27 27 27 27 27 27 27 28 28 28 29 30 30 30 31 31 31 31 31 30 30 29 29 28 27 27 26 26 25 25 24 24 23 23 22 22 21 20 20 19 19 19 18 18 17 15 13 13 15 17 19 19 17 16 15 14 13 13 12 11 10
27 26 26 26 26 26 27 27 27 27 27 27 27 27 27 27 28 28 29 29 30 30 30 31 31 31 31 30 30 30 29 28 28 27 27 26 25 25 24 23 23 23 22 22 21 20 20 19 19 18 18 17 16 14 13 14 16 18 18 17 16 15 15 14 13 12 11 11 10
27 26 26 26 26 26 26 26 26 26 26 27 27 27 27 27 27 28 28 29 30 30 30 30 31 31 31 30 30 30 29 29 28 28 27 26 25 25 24 23 23 23 22 22 21 20 19 19 18 18 17 17 15 14 14 16 18 18 17 16 15 15 15 14 13 12 11 11 10
26 26 26 26 26 26 26 26 26 26 26 26 27 27 27 27 27 28 29 29 29 29 30 30 30 30 30 30 30 30 29 29 28 28 27 26 25 24 24 23 23 23 22 21 21 20 19 19 18 18 17 16 15 15 16 17 18 17 15 15 15 15 15 14 13 12 11 11 11
26 26 26 25 25 25 25 26 26 26 26 26 26 27 27 27 28 28 29 29 29 29 29 29 29 29 29 29 29 29 29 29 28 28 27 26 25 24 23 23 23 22 22 21 21 20 19 19 18 17 17 16 16 17 17 17 16 15 14 14 15 15 15 14 13 12 12 11 11
27 26 26 25 25 24 24 25 25 25 25 26 26 26 27 27 28 28 29 29 29 29 29 28 28 28 28 29 29 29 29 28 28 27 27 26 25 24 23 23 22 22 22 21 21 20 19 19 18 18 17 17 17 17 16 15 14 14 14 14 15 15 14 14 13 12 12 12 11
28 27 27 26 25 24 24 24 24 24 25 25 25 26 26 27 27 28 28 29 29 28 28 28 28 28 28 28 28 28 28 28 28 27 26 26 25 24 23 22 22 22 22 21 21 20 20 19 19 18 18 18 17 16 15 14 14 14 14 15 15 15 14 14 13 13 12 12 12
29 29 28 27 27 26 25 24 24 24 24 24 25 25 26 26 27 27 28 28 28 28 28 28 28 28 28 28 28 28 28 28 28 27 26 25 25 24 23 23 22 22 22 22 21 21 20 19 19 19 18 17 16 15 15 14 14 15 15 16 15 15 14 14 14 13 13 12 12
30 30 29 29 28 27 27 26 26 25 25 25 25 26 26 26 27 27 27 28 28 28 28 28 28 28 28 28 27 27 27 27 27 27 26 25 25 24 24 23 23 23 22 22 21 21 20 20 19 18 17 16 16 15 15 15 16 16 16 16 16 15 14 14 14 14 13 13 12
31 31 30 30 29 29 28 28 29 28 27 27 27 27 27 27 27 26 26 27 27 27 27 27 27 27 27 27 27 27 27 27 27 27 26 26 25 25 24 24 23 23 23 22 22 21 20 19 18 17 16 16 16 16 17 17 17 17 17 17 16 15 15 14 14 14 14 13 13
32 31 31 30 30 30 30 30 30 30 30 29 28 28 28 27 27 26 26 26 26 26 26 27 27 27 27 27 27 27 27 27 27 26 26 26 25 25 25 24 24 23 23 22 21 20 19 19 18 17 17 17 17 18 19 19 18 18 17 17 16 15 15 14 14 14 14 13 13
Wind_Direction
203 204 205 205 206 206 206 206 205 205 205 206 207 208 209 210 211 212 213 214 215 215 216 216 217 217 216 215 214 213 213 214 214 215 215 215 215 215 216 217 218 219 220 222 224 226 228 231 234 237 241 244 248 253 257 262 265 268 270 272 273 274 274 274 274 274 274 274 274
204 205 205 206 207 207 207 207 206 206 206 207 208 208 209 210 211 212 213 213 214 215 215 216 217 217 216 215 213 212 212 213 213 214 215 216 217 218 218 219 220 220 222 224 226 228 231 233 236 240 244 248 253 257 262 266 268 270 272 273 275 276 276 276 275 275 274 273 273
205 206 206 207 207 208 208 208 207 206 206 207 208 208 209 210 211 211 212 213 214 214 215 216 216 216 216 214 213 212 212 212 212 213 214 216 217 218 219 220 221 222 223 225 228 230 232 235 238 242 246 252 257 261 265 268 269 270 272 273 275 276 277 277 277 276 274 273 273
206 207 207 207 207 208 208 209 208 207 207 208 208 208 209 210 210 211 212 212 213 214 214 215 215 215 214 214 213 212 211 211 211 212 214 216 217 218 219 220 222 223 225 227 229 231 234 237 241 246 251 255 259 263 265 267 268 270 271 273 275 276 277 277 277 276 274 273 274
207 208 207 208 208 208 209 209 209 209 209 209 209 209 209 209 210 211 211 212 213 213 214 213 213 213 213 213 212 211 211 211 211 213 214 216 217 218 220 221 223 224 226 229 231 234 237 241 246 251 254 257 260 262 264 265 267 268 271 273 274 275 276 276 276 275 274 274 275
208 208 208 208 208 208 209 210 210 210 210 210 210 209 209 209 210 210 211 212 213 213 213 212 212 212 212 212 212 211 211 211 212 214 215 216 218 219 221 222 224 227 229 232 235 238 241 245 249 253 255 257 259 261 263 264 266 268 270 272 274 275 275 275 275 274 274 274 274
209 209 209 209 209 209 210 210 211 211 211 211 211 210 210 210 210 210 211 212 213 213 213 212 212 212 211 211 212 212 212 213 214 215 216 217 219 220 222 224 226 229 232 235 238 241 244 247 250 253 255 257 260 261 262 264 267 268 270 272 273 275 275 275 275 275 274 274 275
210 210 209 209 209 209 210 210 211 211 211 212 211 211 210 210 210 211 212 213 213 213 213 213 213 212 212 212 212 212 212 213 214 216 217 219 220 222 224 226 228 230 233 236 238 241 244 247 250 253 255 258 260 262 263 265 267 269 270 272 274 275 276 276 276 275 275 275 276
211 211 210 210 209 210 210 211 211 211 211 212 212 211 211 211 211 212 213 214 214 214 214 213 213 212 212 212 212 212 212 213 215 217 219 220 222 223 225 228 230 232 234 236 238 240 243 247 251 254 257 259 261 263 264 266 268 269 271 273 274 276 277 278 277 276 276 276 276
212 212 211 210 210 210 210 211 211 211 211 211 212 212 211 212 212 213 214 215 215 215 214 214 214 213 213 212 212 212 213 214 216 218 219 221 223 225 227 229 231 234 236 237 239 241 244 248 251 255 258 260 263 264 266 268 269 270 272 274 275 276 277 278 278 277 277 276 276
213 213 212 211 211 210 211 211 211 211 211 211 211 211 211 212 213 214 215 215 215 215 215 215 214 214 213 213 213 213 214 215 217 219 220 222 224 226 228 230 233 235 237 239 241 243 246 250 252 255 258 262 264 266 267 269 270 272 273 275 275 276 277 277 278 278 278 277 277
214 214 213 212 211 211 211 211 211 211 211 211 211 211 211 212 213 213 214 215 216 216 216 216 215 215 215 215 214 214 215 216 218 220 222 224 225 227 229 232 234 236 238 240 242 245 248 251 254 256 259 262 265 267 268 269 271 272 274 275 276 276 276 276 277 278 278 277 277
215 215 214 213 212 211 211 211 212 212 212 211 211 211 211 212 212 213 214 215 216 216 217 217 216 216 216 216 216 216 217 218 219 221 223 225 227 229 231 233 235 237 239 241 243 246 249 252 255 257 260 263 266 267 268 269 271 273 274 275 276 276 276 276 276 277 277 277 277
215 215 215 214 213 212 212 212 212 212 212 212 212 211 211 211 212 213 214 215 216 216 217 217 217 217 217 217 218 218 218 219 221 222 224 226 228 230 232 234 236 238 240 242 244 247 250 253 256 259 261 264 266 267 269 270 272 274 275 275 275 275 275 276 276 276 277 277 277
216 216 216 215 214 213 212 212 213 213 212 212 212 212 212 212 212 213 214 215 215 216 217 217 218 218 218 218 219 219 220 220 222 223 225 227 229 231 233 235 237 238 240 242 245 248 251 254 257 260 262 265 266 268 269 272 274 275 276 276 275 275 275 275 276 276 277 277 277
217 217 217 216 215 214 213 213 213 213 213 213 212 212 212 212 212 213 214 214 215 216 217 217 218 218 219 219 220 220 221 222 223 224 226 228 230 232 234 236 237 238 240 242 245 248 252 255 258 261 263 265 267 269 271 273 275 276 277 276 276 276 275 275 276 276 277 277 277
218 218 218 217 216 215 214 213 214 214 214 213 213 213 212 212 213 213 214 214 215 216 217 217 218 219 219 220 220 221 222 223 224 226 227 229 230 232 234 236 237 239 240 242 245 248 252 256 259 262 264 266 267 269 271 274 276 276 277 277 276 276 276 276 276 277 276 276 276
218 218 218 218 217 216 215 214 214 214 214 214 214 213 213 213 213 214 214 215 215 216 217 218 219 219 220 220 221 222 224 224 226 227 229 230 231 233 234 236 237 239 241 243 246 249 252 256 259 261 263 265 267 269 272 274 275 276 276 277 277 277 276 276 276 277 276 276 276
217 218 218 218 218 217 216 215 215 215 215 215 215 214 214 214 214 214 215 215 216 216 217 218 219 220 221 221 222 223 225 226 227 228 229 231 232 233 234 236 238 240 242 244 247 250 253 255 258 260 262 264 266 269 271 272 273 275 276 277 277 277 276 276 276 277 277 276 276
217 217 217 218 218 217 216 216 215 216 216 216 216 215 215 215 215 215 216 216 217 217 218 219 219 221 221 222 223 224 226 227 228 229 230 231 232 233 235 236 238 240 243 246 248 250 252 255 256 258 260 262 264 267 269 271 272 274 275 277 277 277 277 276 276 276 277 277 277
217 217 217 217 217 217 217 216 216 217 217 217 217 216 216 216 216 216 217 217 217 218 219 219 220 221 222 223 224 225 227 228 229 230 231 232 233 234 235 237 238 241 243 246 248 250 252 254 256 257 259 261 263 265 267 270 272 274 276 277 278 278 278 277 276 277 278 278 278
218 217 217 217 217 217 217 217 217 218 218 218 218 218 217 217 217 218 218 218 218 219 220 220 221 222 223 224 225 226 227 229 230 231 231 232 234 235 236 237 238 240 242 245 247 249 251 253 255 257 258 260 262 264 267 269 272 275 277 278 278 279 278 277 277 277 279 280 281
218 218 218 217 217 217 217 217 218 218 219 219 219 219 219 218 218 219 219 219 220 221 221 222 223 224 225 226 226 227 228 229 230 231 232 233 234 235 236 237 238 239 241 244 246 248 250 252 254 256 258 259 261 263 266 269 272 275 278 279 279 279 279 278 277 278 279 282 283
219 218 218 218 217 217 217 218 218 219 219 220 220 220 220 220 219 220 220 220 221 222 222 223 224 225 226 227 228 228 229 230 230 231 232 233 234 234 235 236 238 239 242 244 246 248 249 251 253 255 256 258 260 262 265 267 270 273 277 279 281 280 279 278 277 278 279 280 283
221 219 218 218 217 217 217 218 219 220 220 221 221 221 221 220 220 220 221 221 222 222 223 224 225 226 228 229 229 230 230 230 230 231 232 232 233 234 235 236 238 240 242 245 246 247 248 251 253 254 255 257 258 261 263 265 267 270 274 278 280 279 277 276 277 277 277 277 278
224 222 220 219 218 218 218 219 220 220 221 221 221 221 221 221 221 221 221 222 222 223 224 225 226 227 229 230 231 231 231 231 231 231 232 232 233 234 235 237 238 240 242 244 244 246 247 249 251 253 254 255 256 258 260 262 264 267 272 276 277 276 274 274 275 277 276 275 274
226 224 222 220 219 220 220 220 221 221 222 222 222 222 222 222 222 222 222 222 222 223 224 225 227 228 230 231 231 232 232 232 232 232 232 233 233 234 235 237 239 241 242 243 244 245 246 248 250 251 253 254 255 256 258 260 263 267 271 274 273 272 271 271 274 276 276 275 274
227 226 224 222 220 220 220 221 221 222 223 223 223 223 222 222 222 222 222 222 222 223 224 226 227 229 230 232 232 232 233 233 233 233 234 234 234 235 236 238 239 241 242 242 243 244 245 247 248 250 251 252 253 255 257 259 262 266 269 270 269 268 268 270 273 275 276 275 275
228 227 226 224 222 220 220 221 221 222 223 224 224 223 223 223 223 223 223 223 223 223 224 226 227 229 231 232 233 233 233 234 234 234 234 235 235 236 237 239 240 241 241 241 242 244 245 246 247 248 249 250 252 254 256 259 263 267 268 267 266 265 267 270 274 275 275 275 275
229 228 227 225 223 221 221 221 221 222 223 224 224 224 223 223 223 223 223 223 223 224 225 226 228 229 231 232 233 233 234 234 235 235 235 235 236 237 238 239 240 241 241 241 242 243 244 245 246 247 247 248 250 252 256 260 266 268 267 265 264 265 267 270 272 274 274 273 274
229 228 227 226 224 223 222 221 221 221 222 223 224 224 224 223 223 223 223 223 224 225 226 227 228 229 231 232 233 234 234 235 235 236 236 236 237 238 239 240 241 242 242 242 242 243 244 244 245 245 245 246 248 251 256 262 266 266 265 263 264 265 268 270 272 272 271 270 272
228 227 227 226 225 224 223 222 221 221 222 222 223 224 224 223 223 223 224 224 225 225 226 228 229 230 231 232 233 234 235 235 236 236 237 237 238 239 239 240 241 242 242 242 242 243 243 243 243 243 243 245 247 251 257 262 262 262 261 261 264 267 269 270 271 271 269 269 269
226 226 226 226 225 224 223 222 222 222 222 223 224 224 223 222 223 223 224 225 225 226 227 228 230 231 232 232 233 234 235 236 236 237 237 238 238 239 239 241 242 242 242 242 242 242 242 242 242 242 242 244 247 252 256 257 257 257 258 261 265 268 269 269 270 269 268 267 267
225 225 225 225 224 223 223 222 222 222 223 224 224 224 222 222 222 223 224 226 227 228 229 230 231 232 233 233 234 235 235 236 237 237 237 238 238 239 240 241 242 242 242 241 242 242 241 241 240 241 242 245 249 252 253 253 254 255 258 263 266 268 269 269 269 268 267 266 266
224 224 223 223 223 222 222 221 221 222 223 224 224 223 222 222 223 224 225 227 228 229 230 231 232 233 234 235 235 235 236 236 237 238 238 238 239 239 240 241 242 242 241 241 241 241 240 240 240 241 244 248 251 252 251 251 253 257 261 264 266 267 267 268 268 268 267 266 266
223 223 222 222 222 222 221 221 221 222 223 223 223 223 222 222 223 225 226 227 229 229 230 231 232 233 234 235 236 236 236 236 237 237 238 238 239 239 240 240 241 241 241 241 241 240 239 239 240 242 245 249 250 250 250 252 256 260 263 264 265 265 265 266 267 266 266 266 266
224 223 223 222 222 222 222 222 222 222 223 224 224 223 222 223 224 225 226 227 228 229 230 231 232 233 234 235 236 236 237 236 237 237 238 238 239 239 239 240 240 240 240 240 240 239 238 238 239 241 244 247 248 248 250 254 259 262 263 263 263 263 263 264 264 264 264 265 265
225 225 225 225 224 224 224 224 224 224 224 225 225 224 224 223 224 225 226 227 228 229 230 231 232 233 234 234 235 235 236 236 236 236 237 238 238 238 238 239 239 240 240 239 238 237 237 237 237 239 242 244 246 248 252 256 260 261 261 260 260 261 261 261 262 262 263 263 264
226 227 227 227 227 227 227 227 227 227 227 227 227 226 225 224 224 225 225 227 228 229 230 231 232 233 233 234 234 235 235 235 236 236 237 237 238 237 237 237 238 238 239 238 237 236 235 235 235 238 241 245 248 251 255 258 258 258 257 256 257 258 258 259 259 260 261 262 263
227 227 227 228 228 228 228 228 229 229 229 228 227 226 225 224 224 225 225 226 228 229 230 231 232 233 233 233 234 234 235 235 236 236 236 237 237 236 236 236 236 237 237 236 235 234 233 233 235 238 244 249 253 255 256 256 255 254 253 253 254 254 255 256 257 259 261 263 264
227 227 227 227 226 226 226 227 228 229 229 228 227 226 225 224 224 225 225 226 227 229 230 232 232 232 233 233 234 234 234 235 235 236 236 236 236 236 235 235 235 235 235 234 233 232 232 234 238 243 248 254 255 255 254 253 251 250 249 250 250 251 252 254 256 258 261 264 267